Location: Azat
(46.0765°N, 1.7600°E)
Time: 11:47:16
(UTC+00:00)

RESURS DK-1 - Pass Details

Date: 09 April 2020
Orbit: 557 x 561 km, 69.9° (Epoch: 03 June)

Event Time Altitude Azimuth Distance (km) Brightness Sun altitude
Rises 20:44:03 0° 336° (NNW) 2,760 6.9 -21.3°
Reaches altitude 10° 20:46:20 10° 343° (NNW) 1,859 5.8 -21.6°
Enters shadow 20:50:14 46° 51° (NE) 764 2.9 -22.1°
